Tracking 35334 objects as of 13-Sep-2026
HD Live streaming from Space Station
objects crossing your sky now

SL-12 DEB


SL-12 DEB is no longer on orbit


NORAD ID: 28728
Int'l Code: 2002-037AD
Launch date: July 25, 2002
Source: Commonwealth of Independent States (former USSR) (CIS)
Launch site: TYURATAM MISSILE AND SPACE COMPLEX (TTMTR)
Decay date: 2005-08-02

Note: This is SATELLITE DEBRIS
Your satellite tracking list
Your tracking list is empty




NASA's NSSDC Master Catalog

Two Line Element Set (TLE):
1 28728U 02037AD  05213.72018708  .11318962  77367-5  38428-2 0  9996
2 28728 063.6727 290.1286 0044752 119.8009 241.0703 16.22273448  5065
Source of the keplerian elements: AFSPC